Wind_Speed
9 10 11 11 11 11 11 11 10 9 9 10 10 10 9 9 8 7 7 7 7 7 7 7 8 9 10 9 9 8 8 7 7 7 7 6 5 4 4 5 5 5 5 5 5 4 4 4 4 4 4 3 3 4 4 4 4 5 5 6 7 8 9 10 10 10 10 11 11 10 9 9 8 8 9 9 9 9 10 11 10 10 10 11 11
9 10 11 11 11 11 11 10 9 9 9 9 9 9 8 8 7 7 7 7 6 7 7 7 8 9 9 9 9 8 7 7 8 8 7 7 6 5 4 5 5 5 5 5 5 5 5 4 4 4 4 4 4 4 4 4 5 5 6 6 7 8 8 9 10 10 10 10 10 9 9 9 9 9 9 9 9 10 11 11 10 10 10 10 10
10 10 11 11 11 11 10 10 9 9 8 8 8 8 7 7 7 7 7 7 6 6 7 7 7 8 9 9 9 9 8 7 7 8 8 7 6 5 5 5 4 4 4 4 4 4 4 4 4 4 3 4 4 4 4 5 5 6 6 7 7 8 8 9 9 9 9 9 9 9 9 9 9 9 9 9 10 10 10 10 9 10 10 10 10
12 11 11 10 11 11 10 10 9 9 8 7 7 6 6 6 7 6 6 5 5 5 6 6 6 6 8 9 9 9 8 7 7 7 7 6 6 5 5 4 4 4 4 3 3 3 3 3 3 3 3 3 4 4 4 5 6 6 7 7 7 8 8 8 8 8 8 8 9 8 8 8 9 9 10 10 11 11 10 10 9 10 11 11 11
12 11 11 10 10 10 9 9 9 9 8 7 6 6 7 6 6 6 5 4 4 4 4 5 5 5 6 7 8 8 8 8 7 7 6 6 5 5 5 5 5 5 4 3 3 3 3 4 4 4 4 4 4 4 5 5 6 7 7 7 7 8 8 7 7 7 7 8 8 8 8 9 10 10 11 11 11 11 10 10 10 10 11 11 11
10 11 11 9 9 9 9 9 8 8 8 7 7 7 7 6 6 5 4 4 4 3 2 3 4 5 5 6 7 8 8 8 8 7 7 6 5 5 5 5 6 6 6 6 5 4 4 4 4 4 4 5 5 5 5 5 5 6 6 6 7 7 7 6 7 7 7 7 8 8 9 10 10 11 11 11 11 10 10 9 9 10 10 10 10
9 9 9 8 8 8 8 8 7 7 7 7 7 7 6 6 6 5 4 3 4 3 2 2 3 5 5 6 7 8 8 8 8 8 8 8 7 6 5 6 7 8 8 8 7 6 5 5 4 4 4 5 5 5 5 6 5 5 6 6 6 6 6 6 7 7 7 8 8 9 10 10 10 10 9 9 9 9 9 9 9 9 10 10 10
9 9 9 8 8 7 7 7 6 6 6 7 7 7 6 6 7 6 3 1 3 2 2 2 3 4 5 6 6 7 7 6 7 7 7 8 9 9 8 6 6 7 7 7 7 6 5 5 5 5 5 5 5 5 5 5 5 5 6 6 7 7 7 7 7 8 8 8 9 9 9 9 8 8 8 8 8 8 8 8 9 9 10 10 10
9 9 8 8 7 7 7 7 7 7 7 8 8 7 7 7 8 6 4 2 1 0 2 3 3 4 5 5 6 6 6 5 5 5 6 7 8 9 9 7 6 7 7 7 7 6 4 4 5 5 5 5 5 5 6 6 6 7 7 7 8 8 8 8 8 8 8 8 8 7 8 8 7 7 7 7 8 8 8 8 9 9 10 10 11
8 8 8 8 7 7 7 7 7 8 8 8 8 8 8 8 8 7 5 4 4 2 2 2 2 4 4 4 5 5 4 3 3 4 4 5 6 7 8 8 7 7 7 7 8 7 5 4 5 5 6 6 6 6 6 7 7 7 8 8 8 8 8 8 8 8 7 7 7 7 7 7 7 7 8 8 8 9 9 10 10 10 11 11 12
8 8 8 7 7 7 7 6 7 7 8 8 8 8 8 8 9 8 6 6 6 5 2 2 1 2 2 3 3 3 2 1 2 2 3 5 6 7 7 7 8 8 7 8 9 9 8 7 6 6 6 6 6 7 7 7 8 8 8 8 8 8 8 8 8 7 7 7 7 7 7 8 8 8 9 9 10 10 10 11 11 11 12 12 13
8 7 7 7 7 7 7 6 6 6 6 6 6 6 8 9 10 9 8 7 8 7 5 3 2 2 1 1 0 0 0 1 1 2 3 4 5 6 6 6 6 7 6 7 8 9 9 9 8 8 7 7 7 7 7 8 8 8 8 8 8 8 8 8 7 7 7 8 8 8 8 8 9 9 10 10 11 11 12 12 12 12 13 13 13
8 7 7 7 7 7 6 6 5 5 5 4 5 5 7 8 9 9 9 8 9 8 7 6 5 4 3 3 3 3 2 2 2 2 3 4 5 5 6 5 5 6 6 6 7 8 8 9 9 8 8 7 7 7 7 7 8 8 8 7 7 7 7 7 7 7 7 7 8 8 9 9 10 11 11 12 12 12 13 13 13 14 14 14 14
8 8 7 7 7 6 6 5 5 5 5 5 4 5 6 7 8 8 8 8 8 8 6 7 8 6 5 5 5 4 3 3 3 2 2 3 4 5 5 5 5 6 6 6 7 7 8 8 8 8 8 7 7 7 7 7 7 7 7 6 6 6 6 6 6 7 7 7 8 9 9 10 11 12 12 13 13 14 14 14 15 15 15 15 16
8 8 7 6 6 6 6 6 6 5 5 4 4 5 6 6 6 7 8 8 7 7 5 6 6 5 4 4 5 5 3 1 2 2 2 2 4 5 5 5 6 6 6 7 7 8 8 8 8 7 7 7 7 7 7 7 7 6 6 6 6 6 6 6 6 7 7 8 9 10 10 11 12 13 13 14 14 15 15 15 15 15 16 16 16
8 8 7 6 6 7 7 7 7 6 5 4 4 4 5 6 6 7 8 8 8 8 6 5 4 3 4 3 4 5 4 3 3 2 2 4 5 6 6 5 6 6 6 6 6 7 8 8 8 8 7 8 7 7 7 7 6 6 6 6 6 6 7 7 7 8 9 9 10 11 11 12 13 13 14 15 15 15 15 16 16 16 16 16 16
8 8 7 7 7 8 8 8 7 6 5 5 4 4 5 7 8 8 9 9 9 9 7 6 5 4 3 2 3 3 5 6 5 2 3 6 7 7 7 6 6 5 5 5 5 6 7 8 8 8 8 8 8 8 7 7 6 6 6 6 7 7 8 8 9 10 10 11 11 12 12 13 14 14 15 15 15 15 16 16 16 16 16 16 17
8 8 8 8 8 8 9 8 7 6 6 5 5 5 5 6 7 8 9 9 10 10 9 9 8 6 5 3 2 4 5 6 6 5 5 5 7 8 8 7 6 5 4 4 5 5 5 6 7 7 8 8 8 8 7 6 6 6 6 7 7 8 9 9 10 11 12 13 13 13 14 14 15 15 15 15 15 15 15 16 16 16 16 16 17
8 9 9 9 9 9 9 8 7 6 6 6 6 5 5 5 6 8 9 10 10 10 10 11 11 9 7 5 4 4 6 6 6 7 7 6 6 8 8 7 6 5 3 3 4 4 5 6 6 6 6 7 7 7 7 6 6 7 7 8 8 9 10 11 12 13 13 14 14 14 15 15 15 15 15 15 15 15 15 16 16 16 16 16 17
9 9 9 10 10 10 10 9 8 7 7 6 5 6 6 6 6 7 8 9 9 10 10 11 12 10 8 7 6 5 5 5 6 6 8 9 8 8 7 7 7 6 4 4 4 5 5 5 6 5 5 6 6 6 6 6 7 7 8 9 10 11 12 12 13 13 14 14 14 14 15 15 15 15 15 15 15 16 16 16 16 16 16 16 17
10 10 10 11 10 10 11 10 8 8 7 6 6 6 6 5 5 5 7 7 8 9 10 11 11 9 8 8 7 5 5 5 5 5 7 9 9 9 8 7 7 7 6 5 4 5 5 5 5 5 5 5 6 6 7 7 8 8 10 11 11 12 12 12 13 13 13 13 13 14 14 15 15 15 15 16 16 16 16 16 16 16 16 16 17
11 11 11 12 11 11 11 10 9 8 8 7 7 6 6 5 4 4 5 6 7 7 8 10 10 10 9 9 8 6 5 4 5 5 5 7 8 9 9 8 8 8 7 6 5 5 5 5 5 5 5 5 6 6 7 8 8 9 10 10 11 11 11 11 12 12 12 12 13 13 14 15 15 15 16 16 16 16 16 16 16 16 17 17 18
13 13 13 13 12 12 12 11 11 10 9 9 8 7 6 5 5 4 4 5 6 6 8 10 11 11 10 9 9 7 6 5 5 5 6 7 7 7 7 8 8 9 8 6 5 5 5 5 5 4 4 4 4 5 6 6 7 8 9 10 11 11 12 12 12 12 13 13 13 14 14 14 15 15 15 15 15 15 15 16 16 18 19 20 21
15 15 14 14 14 13 13 13 12 11 10 10 9 8 7 7 6 5 4 5 5 6 7 8 9 10 10 10 10 9 8 7 6 6 7 7 7 7 7 8 8 8 9 7 6 5 5 5 4 4 3 3 4 4 4 5 6 7 9 11 12 14 15 16 15 15 15 15 15 14 14 14 14 14 14 15 15 15 16 17 19 21 22 23 24
17 16 15 15 14 14 14 14 13 12 10 10 10 10 9 8 7 5 5 4 5 6 7 7 8 9 9 10 11 11 9 9 8 8 7 7 7 7 7 8 9 9 10 9 7 5 4 5 5 4 4 4 5 5 5 6 7 9 11 13 15 16 18 19 18 17 17 16 15 15 14 14 14 13 14 15 16 17 19 20 22 24 25 26 26
18 17 16 15 14 14 13 13 13 12 11 10 11 12 12 10 9 7 5 5 5 5 6 7 8 8 8 9 11 11 11 10 10 9 9 8 7 7 7 8 9 10 10 10 9 7 6 6 7 6 6 6 6 6 6 8 10 11 14 16 17 18 19 19 19 17 16 15 14 14 13 13 13 13 15 17 19 20 22 23 24 25 26 27 27
18 16 16 15 15 14 14 14 13 13 12 11 11 12 13 12 10 9 7 6 6 6 6 7 8 8 8 9 9 10 10 10 10 11 10 9 8 7 8 8 10 11 11 10 9 8 8 7 8 8 8 8 8 8 8 10 13 14 16 17 18 19 19 19 18 16 14 14 13 13 13 13 13 15 17 19 20 22 23 23 24 25 25 26 26
18 17 17 17 15 15 14 14 13 13 13 12 11 12 13 13 12 11 9 8 7 7 6 7 7 8 8 9 9 8 8 9 10 11 11 10 8 8 8 8 10 11 12 11 9 8 8 8 9 9 10 11 9 9 10 13 15 17 17 17 18 18 18 18 17 16 15 14 14 14 13 14 15 17 19 20 21 22 22 23 23 24 25 26 26
19 19 18 18 16 16 15 14 14 14 13 13 12 12 12 12 12 12 10 9 9 8 7 7 7 7 8 9 9 9 8 9 10 10 11 10 9 8 8 8 9 10 11 12 11 9 8 8 9 10 11 12 11 12 14 16 16 17 18 17 17 18 18 18 17 16 15 15 15 14 14 15 17 18 19 20 21 21 21 21 22 24 25 25 25
21 20 20 19 18 17 16 15 15 15 14 14 13 13 13 13 12 12 11 10 10 9 8 8 7 8 8 8 9 9 9 9 10 10 11 11 9 8 8 8 8 9 10 13 14 10 8 8 9 10 11 11 12 12 14 15 16 17 16 15 16 18 18 18 18 17 16 16 16 15 15 17 18 19 19 20 19 19 20 21 23 24 24 24 23
22 22 21 21 20 19 18 17 17 16 15 14 14 13 13 13 12 11 10 11 11 9 8 8 8 8 9 9 9 9 10 10 10 11 11 11 11 10 10 10 10 10 11 13 15 12 9 9 9 10 11 11 11 11 11 13 15 14 13 13 15 17 19 18 17 16 16 16 16 16 17 17 17 18 19 19 18 19 21 23 24 23 23 22 22
23 22 22 22 22 21 19 19 18 17 16 15 15 14 14 14 13 12 11 11 12 11 10 10 9 10 10 10 10 10 10 11 12 12 13 13 14 13 13 12 12 13 13 14 16 14 10 9 9 9 11 11 10 9 10 11 12 11 11 13 15 17 18 18 16 15 16 16 16 17 17 17 17 18 18 18 19 21 22 23 23 22 22 22 21
24 23 23 23 23 22 20 20 19 18 17 16 16 16 15 15 14 13 13 12 12 12 11 11 11 11 11 11 11 11 11 12 12 13 14 14 15 15 14 14 14 14 15 15 16 15 11 9 10 10 10 11 10 9 10 10 10 9 10 12 15 16 17 17 16 15 15 15 16 16 16 16 17 18 19 19 19 21 21 22 21 21 21 21 19
25 24 23 24 24 23 22 21 20 19 18 17 17 17 16 16 15 15 14 14 14 13 13 12 12 12 12 12 11 11 11 13 13 14 15 15 15 15 14 15 15 15 16 15 16 17 15 12 11 11 11 12 11 11 12 12 11 9 10 13 15 16 17 17 16 14 14 15 15 15 16 17 18 19 19 19 19 20 21 21 21 20 20 19 18
27 25 23 23 24 24 23 22 21 20 18 17 17 17 16 16 16 16 15 15 15 14 14 13 13 13 13 13 12 11 11 13 13 14 15 15 15 15 15 15 15 15 15 15 15 17 18 17 15 14 13 13 12 12 13 13 12 11 12 15 16 17 18 17 15 14 14 14 14 15 18 19 18 19 19 19 20 21 22 22 21 20 19 18 17
29 27 25 24 24 24 24 24 23 21 20 19 18 17 16 16 16 17 17 17 16 16 15 14 14 14 14 14 13 12 12 13 14 14 15 15 15 15 16 15 15 14 14 15 16 18 19 19 18 16 16 16 14 13 14 14 12 11 13 15 16 17 17 17 15 14 13 13 14 17 19 19 17 17 18 19 20 21 22 22 21 19 18 16 16
31 29 28 27 26 26 26 25 24 23 22 21 20 19 18 17 17 18 18 18 18 17 17 16 15 15 15 15 14 14 14 14 14 14 15 15 16 16 16 16 16 15 15 16 17 18 20 21 20 19 18 17 16 15 14 14 13 12 13 15 16 16 17 17 16 14 12 13 14 17 19 18 17 17 18 19 21 22 23 22 20 18 15 15 16
33 32 31 30 29 29 28 27 26 26 24 23 23 22 21 20 19 19 19 19 19 19 18 18 17 17 16 16 15 15 16 15 15 15 15 15 15 15 15 15 15 16 16 16 17 18 19 20 21 21 19 18 17 15 14 14 14 14 14 16 16 16 17 16 15 13 12 12 13 17 19 18 17 17 18 20 21 23 24 23 20 16 14 15 17
36 35 33 33 32 31 31 30 29 29 28 27 26 25 24 23 22 22 21 21 20 20 20 19 18 18 18 18 17 17 17 17 16 15 15 15 15 15 15 14 15 15 16 16 16 17 18 19 20 20 20 18 16 15 15 14 14 15 16 17 18 18 18 17 15 13 12 11 13 16 19 19 18 18 19 21 23 25 26 24 19 15 14 16 18
39 38 36 35 34 33 33 32 32 32 31 31 30 28 27 26 25 25 24 24 23 22 21 20 20 19 19 19 19 18 18 18 17 17 16 16 16 16 16 16 16 16 17 17 17 18 19 20 20 20 20 19 17 15 15 14 14 15 16 18 19 19 19 18 15 13 12 11 12 15 18 19 19 19 20 22 24 26 26 23 19 15 15 17 19
40 40 39 38 37 36 35 34 34 34 34 34 33 32 30 29 29 28 27 26 26 25 24 23 21 20 20 19 19 19 19 19 18 18 18 18 18 18 17 17 18 18 18 18 18 19 19 20 21 20 20 21 18 16 14 14 15 16 17 18 20 20 20 18 15 13 13 12 13 15 17 18 19 19 20 22 24 25 25 22 18 16 15 17 19
39 40 40 40 40 40 39 37 37 37 37 36 35 34 33 32 32 31 30 29 28 27 27 25 24 22 21 20 19 19 19 20 20 20 20 20 20 20 19 19 19 20 20 20 20 20 20 21 21 21 22 23 20 16 15 15 15 16 17 19 20 21 21 19 16 13 12 13 14 16 17 18 18 18 19 21 23 24 24 21 18 16 15 17 19
36 38 39 40 41 41 41 40 39 39 39 37 36 35 34 33 33 33 32 31 30 29 29 28 27 25 23 22 21 20 20 20 21 21 21 21 21 21 21 21 21 22 22 22 22 21 22 22 22 23 24 25 21 16 15 16 16 17 18 20 21 21 21 21 18 15 14 14 15 16 17 18 17 17 19 20 22 23 23 20 18 16 16 17 19
33 35 37 38 40 40 41 41 41 41 40 39 38 37 36 35 34 34 33 32 31 31 30 29 29 27 26 25 24 23 22 21 21 22 22 23 22 22 22 21 22 22 23 23 23 23 23 23 24 24 24 24 21 17 15 17 18 18 19 20 21 22 22 21 20 18 17 16 17 17 18 19 18 18 19 20 21 22 23 20 18 16 16 18 20
34 34 34 35 36 37 39 40 41 41 40 39 38 38 37 36 35 35 35 34 33 32 32 31 30 29 28 27 26 25 24 23 23 23 23 24 23 23 23 22 22 22 22 22 23 23 24 24 25 25 23 22 21 19 17 19 21 21 21 20 21 21 22 21 20 20 19 18 18 19 19 19 19 19 19 20 20 22 23 21 18 16 17 19 20
35 34 33 33 34 34 35 37 38 39 39 39 38 38 37 36 35 35 35 34 34 33 33 32 31 30 30 29 28 27 25 24 24 23 23 24 24 24 24 24 23 22 21 21 21 21 23 24 26 26 24 22 22 21 20 21 22 22 21 21 21 22 22 22 21 20 20 19 18 19 19 19 19 20 20 20 20 21 22 21 19 17 17 20 21
35 34 33 33 33 32 33 34 35 37 38 38 38 37 37 35 35 35 34 34 33 33 33 32 32 31 31 30 30 28 26 25 24 24 24 24 24 24 25 25 25 24 23 22 21 21 22 23 25 27 26 24 24 24 24 23 23 22 22 22 23 23 23 23 22 21 20 19 17 18 19 19 19 20 20 20 20 21 21 21 19 17 18 20 22
35 35 34 34 33 32 32 32 33 35 36 36 36 36 36 35 34 34 34 33 32 32 32 31 31 31 31 31 30 29 28 27 25 24 24 24 25 25 26 26 26 25 25 24 23 23 23 23 25 26 27 26 26 26 26 25 24 23 23 24 24 23 23 24 23 21 20 18 17 17 18 19 19 19 20 20 20 20 20 19 18 17 18 20 21
34 35 35 34 33 33 32 32 32 32 33 34 34 34 34 33 33 33 33 32 32 31 31 30 30 30 30 30 30 29 29 28 26 25 24 24 26 27 27 27 26 27 27 26 25 25 25 25 25 26 27 26 26 26 27 26 25 24 25 27 26 23 23 24 24 22 20 19 17 17 18 18 17 18 19 20 20 19 19 18 16 15 17 19 20
34 34 34 34 34 33 33 32 31 30 30 29 30 31 31 31 32 32 32 32 31 31 30 29 29 29 29 29 28 28 29 28 26 25 24 25 27 28 28 27 27 28 29 28 27 26 25 25 26 26 26 26 26 25 25 24 24 24 26 26 24 22 23 24 24 23 22 20 17 16 18 17 15 15 18 19 20 18 17 17 15 14 15 17 19
35 35 35 35 35 34 33 32 31 30 29 27 26 27 28 29 30 31 31 32 31 30 29 29 29 29 28 28 27 28 28 28 26 25 24 25 27 28 28 28 29 30 30 28 28 27 26 25 25 25 25 25 24 23 22 21 21 21 22 22 21 21 23 24 23 22 22 20 16 14 16 15 13 14 16 18 19 19 16 14 13 13 14 15 17
Wind_Direction
146 144 142 140 139 138 138 138 137 132 127 118 110 107 103 101 97 93 91 90 93 95 98 99 96 96 95 94 93 93 95 94 91 87 82 79 78 79 83 83 84 84 85 84 85 87 84 81 78 71 70 69 63 57 51 37 26 23 18 16 15 13 9 8 13 15 15 13 8 6 5 4 9 12 13 17 18 21 27 31 33 33 34 35 33
147 145 143 142 141 141 141 143 142 138 130 120 113 111 109 106 101 95 92 89 88 88 92 100 100 97 96 96 99 101 103 101 96 90 84 80 76 73 73 78 82 79 77 75 72 72 72 72 72 70 65 60 58 50 41 30 21 15 8 9 9 5 4 7 14 16 10 5 1 2 5 7 12 18 22 25 26 29 34 35 37 37 37 36 33
149 149 147 146 146 146 148 149 146 142 134 127 123 123 123 117 111 104 95 88 80 77 80 90 101 100 96 96 100 102 104 103 99 95 89 84 80 76 73 76 82 81 72 64 60 60 58 58 56 57 55 47 39 31 25 17 9 4 1 4 4 0 1 6 12 11 3 356 358 5 10 14 21 27 31 31 32 34 36 37 37 38 37 34 31
152 154 154 154 154 154 154 155 153 148 141 140 140 140 140 133 128 119 104 91 75 71 71 76 95 106 104 100 101 101 98 95 94 95 91 86 80 74 72 72 76 75 69 60 52 45 37 35 35 34 32 22 14 11 9 6 358 355 359 2 357 356 0 3 5 2 356 356 2 12 17 23 30 33 34 32 33 33 33 35 33 31 30 28 26
157 159 163 164 164 161 160 162 162 158 155 160 163 159 157 154 146 133 115 95 72 63 67 70 82 101 112 107 104 100 94 91 89 91 90 85 79 70 69 70 70 67 64 61 51 41 31 26 24 17 12 4 0 360 357 358 356 354 356 357 351 352 358 359 358 357 360 6 13 22 28 30 31 31 32 31 30 30 29 29 25 23 21 21 20
162 167 171 171 171 167 165 167 168 168 172 178 182 177 174 174 167 154 135 106 69 47 49 67 76 92 111 110 106 102 97 94 89 85 80 75 72 68 69 70 70 65 60 58 52 44 36 27 18 7 0 356 353 352 352 357 356 350 348 347 346 349 355 358 2 11 16 22 26 31 32 30 30 29 29 29 27 26 24 21 19 16 14 15 14
171 173 177 178 176 171 169 173 176 177 182 191 194 190 188 189 186 178 160 113 59 36 43 83 85 94 108 109 104 103 101 97 89 81 72 66 61 57 61 65 66 63 59 56 50 45 41 33 21 7 359 355 356 355 354 358 354 348 349 353 360 6 14 20 23 28 32 33 33 33 31 29 29 29 28 27 25 21 18 15 12 9 7 7 6
183 180 181 181 181 179 181 186 195 198 196 201 204 202 200 199 197 195 188 120 42 44 83 101 99 100 109 107 101 102 103 95 85 77 68 60 54 49 49 54 59 56 53 46 38 37 40 39 33 22 15 10 8 8 6 7 6 8 15 20 27 32 36 39 39 38 37 36 34 32 29 27 25 24 22 21 19 15 11 7 3 360 358 357 357
187 186 185 185 189 194 195 198 209 217 214 210 209 211 211 207 203 207 224 263 311 59 107 104 99 96 98 99 99 101 101 90 75 64 54 47 42 41 42 46 48 43 40 34 29 31 36 37 32 26 24 23 21 21 21 23 27 31 34 35 37 41 43 43 43 41 38 34 31 28 23 19 16 12 10 8 6 4 1 357 353 350 349 347 347
189 188 186 186 192 199 203 204 211 219 220 217 217 217 216 212 208 210 227 245 253 247 154 128 94 84 82 89 101 104 97 80 60 44 33 25 21 24 28 33 37 36 37 38 38 41 44 38 29 26 26 29 32 34 36 39 41 41 40 40 40 42 43 43 43 41 36 31 25 20 15 9 5 2 0 358 357 355 352 349 347 344 342 341 340
192 188 187 190 195 202 207 205 206 210 213 215 216 217 215 212 210 210 220 230 240 252 233 191 131 65 70 81 101 107 102 75 42 24 12 5 0 0 2 8 19 29 37 43 46 49 51 50 44 41 38 37 42 46 49 50 48 45 43 42 41 41 42 41 40 37 32 27 21 15 10 6 3 360 358 357 355 353 350 347 345 343 340 338 337
196 191 190 195 198 202 209 206 202 201 201 205 208 213 213 213 213 213 221 229 234 248 257 247 256 290 323 14 6 113 187 277 308 330 348 352 349 350 350 352 5 20 31 39 44 47 51 53 52 52 49 48 49 51 53 53 50 46 43 41 39 39 39 37 35 31 28 24 18 13 9 6 3 1 359 358 356 352 350 348 346 344 341 338 337
201 198 195 198 199 200 209 212 203 194 196 203 206 208 212 215 216 217 223 231 236 242 253 258 262 275 293 311 317 312 291 266 268 288 322 341 347 350 352 0 14 22 30 38 44 46 48 50 50 50 51 52 53 53 51 50 48 45 41 37 35 34 32 31 29 28 25 20 16 12 8 5 3 1 360 357 354 352 349 348 346 345 343 340 338
204 203 200 199 199 202 213 215 205 198 204 213 215 212 214 217 219 221 222 227 234 235 242 256 257 263 285 307 316 313 291 250 248 272 307 333 347 353 356 7 22 32 40 45 48 48 50 51 50 49 51 52 53 52 49 47 45 42 38 33 30 28 26 25 25 24 23 19 15 11 8 5 2 360 358 355 353 351 349 347 345 343 341 339 338
205 204 205 203 204 207 214 217 213 209 210 221 228 224 223 223 221 222 221 217 218 219 233 254 246 243 268 294 309 311 308 250 248 278 311 341 354 358 2 11 15 22 37 44 44 46 49 53 56 56 55 52 50 49 47 44 40 37 33 29 25 23 21 20 22 21 19 17 13 10 7 3 0 358 356 354 351 350 348 346 343 341 339 336 335
208 208 208 208 210 213 216 219 220 219 220 229 234 232 233 232 226 223 220 211 205 210 222 230 213 221 257 288 308 313 327 322 302 309 344 356 357 356 1 10 8 7 19 28 31 40 48 54 58 59 55 50 47 48 45 40 36 31 26 23 20 16 15 14 13 12 12 11 9 7 5 2 0 358 357 355 352 349 345 343 340 337 335 333 331
209 212 211 213 215 215 216 216 220 224 229 231 229 231 233 232 229 227 225 216 207 211 222 224 218 234 262 297 331 333 337 327 318 341 7 359 359 359 0 6 7 6 11 13 13 27 42 51 55 54 52 49 48 47 45 40 33 27 21 17 15 12 10 8 7 7 7 7 6 4 3 2 360 359 357 354 352 348 345 341 338 336 334 331 329
211 214 215 218 217 216 215 212 213 220 226 226 224 226 229 227 227 228 228 224 216 218 229 239 245 254 258 257 310 340 339 333 325 328 346 358 3 1 360 6 13 16 20 15 12 20 31 40 45 46 48 50 49 47 45 40 33 26 22 17 14 12 9 8 7 6 5 4 3 1 360 358 357 355 354 353 351 349 346 343 339 337 334 332 329
211 215 217 219 218 216 216 212 208 214 220 222 225 229 226 224 225 228 230 231 229 229 236 246 253 260 256 241 261 314 327 334 326 317 327 343 0 3 1 10 18 19 27 31 31 33 30 32 38 42 47 48 50 50 46 40 33 28 25 22 19 16 12 10 8 6 4 2 0 359 357 355 354 353 352 351 350 348 345 342 339 337 334 332 329
212 215 216 217 217 217 217 213 207 212 218 219 226 227 221 221 224 228 233 237 239 240 243 248 253 258 253 240 252 287 311 325 320 311 313 320 342 1 360 10 22 21 25 34 41 41 36 33 36 41 45 46 50 52 50 44 37 32 27 25 23 19 15 11 8 6 3 0 358 356 354 354 352 351 350 348 346 343 341 338 336 333 331 329 327
215 215 215 216 216 216 217 214 207 209 216 218 221 220 216 220 222 226 234 237 240 244 246 247 249 250 246 240 247 271 294 311 315 311 307 309 327 342 343 354 15 20 21 26 33 39 44 45 46 49 49 52 55 58 57 52 46 39 33 28 23 18 13 8 4 0 356 353 352 351 350 349 348 346 345 342 340 338 336 334 333 330 327 324 321
216 215 215 216 216 215 216 213 208 208 212 214 217 217 214 213 215 220 227 230 237 240 241 242 242 241 241 239 240 256 278 295 307 310 310 313 321 328 330 335 347 356 2 13 23 30 43 54 56 55 53 54 56 58 58 52 47 40 33 26 18 11 3 357 351 346 344 343 341 342 341 340 339 338 337 335 333 332 332 330 328 324 320 317 315
218 216 215 217 216 216 217 215 213 213 213 214 213 209 205 202 207 217 224 232 238 237 237 239 240 240 239 234 232 243 263 277 292 297 299 306 312 317 319 317 325 338 343 350 5 11 23 41 47 45 41 38 38 42 45 41 34 25 16 10 2 355 348 342 337 333 331 331 330 330 331 331 331 330 329 329 328 328 326 323 319 316 313 312 312
218 216 215 216 218 217 216 216 216 216 215 215 210 204 202 203 206 213 221 235 242 240 239 240 241 242 239 233 231 240 254 264 273 283 289 291 296 306 309 307 311 321 327 331 340 353 4 11 10 9 8 7 6 7 12 14 9 360 354 352 348 344 340 336 332 330 329 328 328 328 328 327 326 325 325 324 323 321 317 314 312 312 312 311 311
218 217 214 216 219 219 219 218 217 217 216 216 214 209 208 209 206 206 211 226 244 247 243 244 247 246 241 235 235 242 255 262 264 269 279 284 290 301 304 303 304 308 313 316 322 340 355 351 347 346 349 353 352 350 347 348 348 344 342 344 343 339 337 335 334 334 333 331 330 330 329 327 324 323 321 319 316 313 312 313 315 316 316 314 313
219 219 217 219 221 222 224 223 220 220 220 220 221 218 216 216 211 207 207 213 230 244 248 247 248 248 243 240 242 249 256 259 258 261 271 281 292 305 307 301 299 302 306 308 312 323 333 337 335 334 338 343 345 343 341 344 345 342 340 341 340 338 336 335 335 334 332 332 332 330 327 324 322 320 318 317 316 316 317 320 320 320 318 316 315
222 223 223 223 224 224 227 227 224 222 223 225 225 224 224 226 224 217 214 216 224 234 245 247 248 249 249 248 250 255 258 257 254 255 263 276 290 304 312 309 304 302 302 303 309 315 319 323 325 327 332 337 343 344 343 347 344 339 338 339 339 339 337 336 335 334 333 334 332 327 324 322 320 320 321 320 320 321 322 322 320 319 318 318 318
226 227 227 227 227 227 228 230 229 226 225 226 228 229 232 236 237 231 224 229 237 239 242 245 247 249 250 249 251 256 260 256 251 251 257 268 285 301 311 312 311 310 308 307 313 317 317 318 319 324 328 330 336 343 343 342 340 337 339 340 340 339 336 335 335 336 336 333 329 325 323 321 320 322 323 323 322 322 320 319 320 321 322 322 322
230 230 231 231 230 230 229 232 233 231 228 228 229 232 237 242 244 240 235 237 246 251 251 249 250 252 251 249 249 250 253 253 250 251 253 260 275 296 307 306 304 309 313 315 317 321 324 322 319 320 321 323 328 334 337 336 335 336 338 340 339 336 334 333 334 335 333 329 326 324 321 319 320 324 324 323 322 321 321 323 326 328 328 328 330
232 233 233 232 232 231 230 231 233 233 232 231 231 233 239 244 246 244 240 240 245 253 259 260 259 260 259 254 251 249 248 249 250 251 251 256 267 284 296 299 295 296 306 312 314 318 324 324 322 319 315 317 324 330 332 332 331 332 334 337 337 334 333 334 334 333 328 324 322 319 317 319 322 325 324 323 324 327 330 333 334 335 335 336 338
233 234 234 233 232 231 229 230 231 232 233 234 234 236 240 246 249 248 244 244 246 249 255 262 264 266 265 263 260 256 252 249 247 250 252 256 264 274 284 290 291 293 302 310 310 311 317 315 314 316 313 315 325 329 327 326 326 328 332 336 337 335 335 335 334 329 322 319 316 315 317 321 325 327 327 329 335 339 340 340 340 340 339 339 340
236 236 235 234 233 230 229 230 231 232 234 237 239 241 244 246 248 249 249 248 248 248 249 254 259 263 266 266 265 264 260 253 248 249 252 256 263 270 277 283 289 295 302 308 308 307 311 311 308 309 311 315 325 327 322 322 323 325 333 337 338 337 336 336 334 325 318 315 312 315 320 324 329 332 334 338 344 347 345 343 342 340 340 340 341
240 239 237 235 234 232 230 229 230 232 236 239 243 245 248 250 249 248 250 252 253 252 252 252 256 260 264 265 266 267 265 259 254 253 253 256 262 268 274 280 287 294 300 305 306 305 306 308 307 308 309 311 319 321 320 323 322 322 331 337 340 339 334 335 332 324 318 313 313 320 325 328 336 340 340 344 349 349 347 343 341 341 340 341 343
242 242 240 238 237 235 232 229 228 231 235 239 243 246 249 251 251 250 251 254 257 259 258 257 258 261 264 266 267 269 270 266 262 258 256 258 263 267 272 278 284 291 297 301 302 303 303 303 303 305 307 307 311 316 321 327 328 325 330 336 340 338 333 332 331 324 318 315 319 327 328 332 343 347 344 346 349 348 345 343 341 341 341 341 342
241 242 241 240 239 237 235 232 230 231 234 237 240 245 249 251 252 253 253 255 257 259 262 263 265 267 268 268 269 271 272 271 268 264 261 261 264 267 270 275 282 287 292 294 295 298 301 301 302 306 308 307 311 317 321 327 330 328 331 336 338 335 332 331 329 324 319 321 329 332 329 336 347 348 344 344 346 346 343 342 341 340 339 339 339
240 240 241 241 241 239 237 235 235 235 236 237 239 243 247 250 253 254 255 257 258 259 261 263 265 268 270 271 271 271 270 270 270 268 266 265 266 269 271 272 276 280 284 287 289 292 296 298 302 306 309 310 314 319 320 322 326 327 331 335 336 332 330 331 329 325 325 329 335 331 329 337 345 342 339 340 342 342 340 341 340 337 336 336 338
241 240 240 242 243 243 243 242 242 242 241 242 244 245 248 251 255 257 258 259 260 261 262 263 263 265 268 270 272 271 270 269 270 270 269 269 269 270 272 274 275 278 281 284 286 289 291 295 299 303 306 309 313 316 318 319 319 323 328 333 335 329 326 331 332 330 332 336 335 330 328 335 339 335 335 336 336 337 338 340 340 336 335 337 339
242 242 242 242 243 244 246 248 249 250 249 249 249 249 251 253 257 260 262 262 262 263 264 264 264 265 266 268 269 269 269 269 271 271 270 271 271 271 272 275 277 279 281 283 286 287 289 292 296 299 303 307 310 312 315 316 316 321 325 328 333 330 325 330 334 335 339 339 334 329 327 332 335 331 331 333 332 334 337 340 340 338 338 342 344
244 244 243 243 244 245 247 249 251 253 255 254 254 254 254 256 258 261 263 265 266 266 266 266 266 267 267 267 267 266 266 267 269 270 269 269 270 271 272 274 275 276 277 280 283 285 288 290 292 295 300 302 305 307 311 312 313 322 327 326 329 331 328 331 336 337 341 342 335 329 327 329 331 329 328 330 330 332 336 339 340 340 343 347 349
245 245 245 245 246 246 247 249 251 254 256 257 257 257 258 259 261 263 264 265 267 267 267 267 268 268 268 268 268 267 265 265 265 266 267 267 268 269 270 271 273 273 274 276 278 280 283 285 287 291 294 295 298 301 304 306 311 321 329 329 329 329 327 331 336 334 334 337 334 329 327 328 329 327 326 328 329 331 334 336 338 341 347 350 351
247 247 247 247 248 248 249 250 252 253 255 257 257 258 259 260 262 264 265 266 267 267 267 267 267 269 270 271 271 270 268 266 265 264 264 264 266 267 269 269 270 272 273 274 275 276 278 281 283 286 287 287 290 294 296 299 308 320 329 330 329 329 326 327 333 331 326 328 331 329 327 326 325 323 323 325 327 329 331 333 336 341 346 350 352
247 248 249 249 250 251 251 252 253 254 255 256 257 257 258 260 261 263 264 265 266 267 266 266 265 266 268 271 271 270 268 267 265 264 263 263 264 266 268 269 270 271 272 273 273 274 276 279 281 283 283 281 282 287 289 292 305 319 327 327 328 329 327 325 327 326 320 321 326 326 324 323 321 317 318 321 324 326 328 331 335 338 344 349 351
248 248 249 250 251 252 253 253 254 255 256 257 257 258 258 259 260 261 262 263 264 265 266 266 265 264 266 268 269 268 266 264 264 264 263 262 262 263 265 267 269 270 272 273 274 273 274 276 279 280 279 278 278 280 282 289 304 318 323 324 326 328 327 324 322 321 318 317 320 320 319 318 316 311 310 317 322 325 326 330 333 336 339 344 346
251 250 250 251 251 252 253 254 255 255 256 257 257 257 258 258 259 260 261 262 262 263 264 265 266 265 266 267 269 268 266 264 263 262 261 260 260 260 262 264 266 268 269 272 273 274 273 274 276 276 275 275 278 279 282 292 305 312 315 318 320 322 322 320 317 315 314 314 315 315 314 315 313 307 306 314 321 323 324 327 332 334 333 337 339
253 254 254 253 253 253 253 254 255 255 256 256 256 256 256 256 257 259 261 261 262 262 263 264 265 266 266 268 269 270 268 266 265 263 260 259 258 258 260 261 262 264 266 269 272 274 275 273 271 272 272 274 277 279 285 296 302 305 307 309 310 312 313 313 312 309 308 308 308 308 309 311 311 306 305 312 320 321 320 323 329 331 328 330 333
254 254 255 255 255 255 255 255 255 255 255 255 255 255 255 255 256 258 260 261 262 262 263 263 264 265 265 267 269 269 269 268 267 265 262 260 259 258 258 258 259 260 262 265 267 271 274 272 269 270 272 274 276 280 286 294 296 297 299 300 301 303 305 306 306 304 303 303 302 302 305 308 309 305 304 309 316 318 317 320 325 327 325 326 329
255 255 255 255 256 257 257 257 257 256 255 253 254 254 254 254 255 257 259 260 261 262 262 263 264 264 264 266 267 268 268 267 266 265 264 264 262 261 258 256 256 257 257 259 261 264 268 268 267 268 270 272 274 277 283 287 288 290 293 293 295 298 300 301 300 299 300 302 300 299 301 305 305 302 301 306 312 315 315 318 322 324 324 324 325
256 256 256 256 256 256 256 257 258 258 255 252 252 253 253 253 254 256 258 259 260 261 261 261 263 263 263 264 265 266 266 265 264 264 266 267 266 264 261 258 257 257 255 255 257 260 262 263 264 266 267 269 270 273 276 280 282 285 289 290 292 295 297 297 295 296 300 301 299 295 293 297 300 298 297 302 309 312 314 315 318 321 321 321 321
255 256 256 257 257 257 257 257 259 260 257 253 251 251 251 252 254 255 256 257 258 259 259 260 261 262 262 262 263 264 264 263 262 263 266 268 268 266 264 262 260 259 256 255 256 258 260 261 262 264 266 267 268 270 273 276 279 282 285 287 291 294 294 292 293 298 299 296 294 290 285 287 293 293 293 298 305 310 310 309 310 314 315 315 316
257 257 258 259 259 260 260 260 261 264 263 258 255 253 250 251 253 254 254 255 257 257 258 259 260 261 260 260 260 261 261 260 261 262 264 267 268 267 266 265 264 261 258 256 258 259 260 261 263 264 266 267 268 270 274 277 279 280 281 285 288 290 289 289 294 299 297 291 290 285 279 280 284 285 287 293 300 304 303 300 300 303 304 306 310
258 259 259 259 260 261 262 263 263 265 266 264 261 256 252 250 252 253 253 255 255 255 256 257 258 260 259 259 258 258 258 258 258 260 263 266 267 267 267 267 264 260 257 259 262 263 263 263 264 265 265 265 266 269 272 274 277 279 280 282 284 285 286 289 293 295 292 290 291 284 275 275 278 278 281 287 292 295 295 293 294 294 294 297 303
Height
1595 1595 1596 1597 1597 1598 1599 1600 1600 1601 1602 1602 1603 1603 1604 1604 1605 1605 1606 1606 1607 1607 1607 1607 1607 1607 1607 1607 1607 1607 1607 1607 1607 1607 1607 1607 1607 1608 1608 1608 1608 1608 1608 1608 1608 1608 1608 1608 1609 1609 1609 1609 1608 1608 1608 1608 1607 1607 1607 1607 1606 1606 1606 1606 1605 1605 1604 1604 1603 1602 1602 1601 1600 1599 1599 1598 1597 1597 1596 1595 1595 1594 1594 1593 1593
1596 1596 1597 1598 1598 1599 1600 1601 1602 1602 1603 1603 1604 1605 1605 1606 1606 1607 1607 1608 1608 1608 1608 1608 1608 1608 1608 1608 1608 1608 1608 1608 1608 1608 1608 1608 1608 1609 1609 1608 1608 1608 1609 1609 1609 1609 1609 1609 1609 1609 1609 1609 1609 1608 1608 1608 1608 1608 1607 1607 1607 1606 1606 1606 1605 1605 1604 1604 1603 1602 1602 1601 1600 1599 1599 1598 1598 1597 1596 1596 1595 1595 1594 1594 1593
1596 1597 1598 1599 1599 1600 1601 1602 1602 1603 1604 1604 1605 1606 1606 1607 1607 1608 1608 1609 1609 1609 1609 1609 1609 1610 1610 1609 1609 1609 1609 1609 1609 1609 1609 1609 1609 1609 1609 1609 1609 1609 1609 1609 1610 1610 1610 1610 1610 1610 1609 1609 1609 1609 1609 1608 1608 1608 1608 1607 1607 1607 1606 1606 1606 1605 1605 1604 1603 1602 1602 1601 1600 1600 1599 1598 1598 1597 1596 1596 1596 1595 1595 1594 1594
1597 1598 1599 1600 1600 1601 1602 1602 1603 1604 1604 1605 1606 1607 1607 1608 1608 1609 1609 1610 1610 1610 1610 1610 1611 1611 1611 1611 1610 1610 1610 1610 1610 1610 1610 1610 1610 1610 1610 1610 1610 1610 1610 1610 1610 1610 1611 1610 1610 1610 1610 1609 1609 1609 1609 1609 1609 1608 1608 1608 1607 1607 1607 1606 1606 1605 1605 1604 1603 1602 1602 1601 1601 1600 1599 1599 1598 1597 1597 1597 1596 1596 1595 1595 1594
1598 1599 1600 1600 1601 1602 1602 1603 1604 1605 1605 1606 1607 1607 1608 1609 1609 1610 1610 1611 1611 1611 1611 1611 1612 1612 1612 1612 1611 1611 1611 1611 1611 1611 1611 1611 1611 1611 1611 1611 1611 1611 1611 1611 1611 1611 1611 1611 1610 1610 1610 1610 1609 1609 1609 1609 1609 1609 1608 1608 1608 1607 1607 1606 1606 1605 1604 1604 1603 1602 1602 1601 1601 1600 1600 1599 1599 1598 1598 1597 1597 1596 1596 1595 1595
1598 1599 1600 1601 1602 1603 1603 1604 1605 1606 1606 1607 1608 1608 1609 1610 1610 1611 1611 1611 1611 1612 1612 1612 1612 1612 1612 1612 1612 1612 1611 1611 1612 1612 1612 1611 1611 1612 1612 1612 1612 1611 1611 1611 1611 1611 1611 1611 1610 1610 1610 1610 1610 1610 1610 1610 1609 1609 1609 1608 1608 1607 1607 1606 1606 1605 1604 1604 1603 1603 1602 1602 1601 1601 1600 1600 1599 1599 1598 1598 1597 1596 1596 1595 1595
1599 1600 1601 1602 1603 1603 1604 1605 1605 1606 1607 1608 1608 1609 1609 1610 1611 1611 1612 1612 1612 1612 1613 1613 1613 1613 1613 1613 1613 1612 1612 1612 1612 1613 1613 1612 1612 1612 1612 1612 1612 1612 1612 1612 1611 1611 1611 1611 1611 1610 1610 1610 1610 1610 1610 1609 1609 1609 1609 1608 1608 1607 1607 1606 1606 1605 1604 1604 1604 1603 1603 1602 1602 1601 1601 1600 1600 1599 1598 1598 1597 1597 1596 1596 1595
1600 1600 1601 1602 1603 1604 1605 1605 1606 1607 1607 1608 1609 1609 1610 1610 1611 1612 1612 1612 1612 1613 1613 1614 1614 1613 1613 1613 1613 1613 1613 1613 1613 1613 1613 1613 1613 1613 1613 1613 1613 1612 1612 1612 1612 1611 1611 1611 1611 1611 1611 1611 1610 1610 1610 1610 1609 1609 1609 1608 1608 1607 1607 1606 1606 1605 1605 1605 1604 1604 1604 1603 1603 1602 1601 1601 1600 1599 1599 1598 1597 1597 1596 1596 1595
1600 1601 1602 1603 1604 1604 1605 1606 1606 1607 1608 1608 1609 1610 1610 1611 1611 1612 1612 1613 1613 1614 1614 1614 1614 1614 1614 1614 1614 1614 1614 1614 1614 1614 1614 1614 1614 1614 1614 1613 1613 1613 1613 1613 1612 1612 1611 1611 1611 1611 1611 1611 1610 1610 1610 1610 1610 1609 1609 1608 1608 1608 1607 1607 1606 1606 1606 1605 1605 1604 1604 1604 1603 1602 1602 1601 1600 1600 1599 1598 1598 1597 1596 1595 1595
1600 1601 1602 1603 1604 1604 1605 1606 1607 1607 1608 1608 1609 1610 1610 1611 1612 1612 1613 1613 1614 1614 1615 1615 1615 1615 1614 1614 1614 1615 1615 1615 1615 1614 1615 1615 1615 1615 1615 1614 1614 1614 1614 1613 1613 1612 1612 1612 1612 1611 1611 1611 1611 1610 1610 1610 1610 1610 1609 1609 1608 1608 1608 1607 1607 1607 1606 1606 1605 1605 1605 1604 1603 1603 1602 1601 1600 1600 1599 1598 1598 1597 1596 1595 1594
1601 1602 1602 1603 1604 1605 1605 1606 1607 1607 1608 1609 1609 1610 1610 1611 1612 1613 1613 1614 1614 1615 1615 1615 1615 1615 1615 1615 1615 1615 1615 1615 1615 1615 1615 1615 1615 1615 1615 1615 1615 1615 1614 1614 1613 1613 1612 1612 1612 1612 1612 1611 1611 1611 1611 1611 1610 1610 1610 1609 1609 1609 1608 1608 1608 1607 1607 1606 1606 1605 1605 1604 1604 1603 1602 1601 1601 1600 1599 1598 1598 1597 1596 1595 1594
1601 1602 1602 1603 1604 1605 1605 1606 1607 1607 1608 1609 1609 1610 1610 1611 1612 1613 1613 1614 1614 1615 1615 1616 1616 1616 1615 1616 1616 1616 1616 1615 1615 1615 1616 1616 1616 1616 1616 1616 1616 1615 1615 1615 1614 1614 1613 1613 1612 1612 1612 1612 1611 1611 1611 1611 1611 1611 1610 1610 1610 1610 1609 1609 1608 1608 1607 1607 1606 1606 1605 1605 1604 1603 1602 1601 1601 1600 1599 1598 1598 1597 1596 1594 1593
1601 1602 1603 1603 1604 1605 1605 1606 1607 1607 1608 1608 1609 1609 1610 1611 1612 1613 1613 1614 1614 1615 1615 1616 1616 1616 1616 1616 1616 1616 1616 1616 1616 1616 1616 1616 1616 1616 1616 1616 1616 1616 1616 1615 1615 1614 1614 1614 1613 1613 1613 1612 1612 1612 1612 1612 1611 1611 1611 1611 1611 1610 1610 1610 1609 1608 1608 1607 1607 1606 1605 1605 1604 1603 1602 1601 1601 1600 1599 1598 1597 1596 1595 1594 1593
1601 1602 1603 1604 1604 1605 1605 1606 1607 1607 1608 1608 1609 1609 1610 1611 1611 1612 1613 1614 1615 1615 1615 1615 1616 1616 1616 1616 1616 1616 1616 1616 1616 1616 1617 1617 1617 1617 1617 1617 1617 1616 1616 1616 1615 1615 1615 1614 1614 1614 1613 1613 1613 1613 1612 1612 1612 1612 1612 1611 1611 1611 1610 1610 1609 1609 1608 1607 1607 1606 1606 1605 1604 1603 1602 1601 1601 1600 1599 1598 1597 1595 1594 1593 1592
1601 1602 1603 1604 1604 1605 1605 1606 1607 1607 1608 1608 1609 1609 1610 1611 1611 1612 1613 1614 1615 1615 1616 1616 1616 1616 1616 1616 1617 1616 1616 1616 1617 1617 1617 1617 1617 1617 1617 1617 1617 1617 1617 1616 1616 1615 1615 1615 1615 1614 1614 1614 1613 1613 1613 1612 1612 1612 1612 1612 1612 1611 1611 1610 1609 1609 1608 1608 1607 1606 1606 1605 1604 1603 1602 1601 1600 1599 1598 1597 1596 1595 1594 1592 1591
1601 1602 1603 1604 1604 1605 1606 1606 1607 1607 1608 1609 1609 1609 1610 1610 1611 1612 1613 1614 1615 1616 1616 1616 1616 1617 1617 1617 1617 1617 1617 1617 1617 1617 1618 1618 1618 1618 1617 1617 1617 1617 1617 1617 1616 1616 1616 1615 1615 1615 1615 1614 1614 1613 1613 1613 1613 1613 1613 1612 1612 1611 1611 1610 1610 1609 1608 1608 1607 1606 1606 1605 1604 1603 1602 1601 1600 1598 1597 1596 1595 1594 1592 1591 1590
1600 1602 1603 1604 1604 1605 1606 1606 1607 1607 1608 1609 1609 1609 1610 1610 1611 1612 1613 1614 1615 1616 1616 1616 1617 1617 1618 1618 1618 1618 1618 1618 1618 1618 1618 1618 1618 1618 1618 1618 1617 1617 1617 1617 1617 1616 1616 1616 1616 1615 1615 1615 1614 1614 1614 1613 1613 1613 1613 1613 1612 1612 1611 1611 1610 1609 1609 1608 1607 1606 1605 1604 1603 1602 1601 1600 1599 1598 1596 1595 1594 1592 1591 1590 1589
1600 1601 1602 1603 1604 1605 1605 1606 1607 1607 1608 1609 1609 1609 1610 1610 1611 1612 1613 1614 1615 1616 1616 1616 1617 1617 1618 1618 1618 1619 1619 1619 1619 1619 1618 1618 1618 1618 1618 1618 1618 1618 1617 1617 1617 1616 1616 1616 1616 1616 1615 1615 1615 1614 1614 1614 1614 1613 1613 1613 1612 1612 1611 1611 1610 1609 1608 1608 1607 1606 1605 1604 1603 1602 1600 1599 1598 1597 1595 1594 1592 1591 1590 1588 1587
1600 1601 1602 1603 1604 1605 1605 1606 1607 1607 1608 1608 1609 1610 1610 1610 1611 1612 1612 1613 1614 1615 1616 1616 1616 1617 1618 1619 1619 1619 1619 1620 1620 1620 1619 1619 1618 1619 1618 1618 1618 1618 1618 1617 1617 1617 1616 1616 1616 1616 1616 1616 1615 1615 1615 1614 1614 1614 1613 1613 1612 1612 1611 1611 1610 1609 1608 1607 1606 1605 1604 1603 1602 1601 1600 1598 1597 1596 1594 1593 1591 1590 1588 1587 1586
1599 1601 1602 1603 1604 1604 1605 1606 1606 1607 1608 1608 1609 1610 1610 1611 1611 1612 1612 1613 1614 1615 1616 1616 1616 1617 1618 1619 1619 1620 1620 1620 1620 1620 1620 1619 1619 1619 1619 1619 1618 1618 1618 1618 1617 1617 1617 1616 1616 1616 1616 1616 1615 1615 1615 1615 1614 1614 1614 1613 1612 1612 1611 1610 1610 1609 1608 1607 1606 1605 1603 1602 1601 1600 1598 1597 1596 1594 1593 1591 1590 1588 1587 1585 1584
1599 1600 1601 1602 1603 1604 1605 1606 1606 1607 1608 1608 1609 1610 1610 1611 1611 1612 1613 1613 1614 1615 1615 1615 1616 1617 1618 1619 1620 1620 1620 1620 1621 1621 1620 1620 1619 1619 1619 1619 1619 1618 1618 1618 1618 1617 1617 1617 1616 1616 1616 1616 1616 1616 1615 1615 1614 1614 1614 1613 1613 1612 1611 1610 1609 1608 1607 1606 1605 1604 1603 1601 1600 1598 1597 1596 1594 1593 1591 1590 1588 1586 1585 1583 1582
1598 1599 1601 1602 1603 1604 1604 1605 1606 1607 1608 1608 1609 1610 1610 1611 1612 1612 1613 1613 1614 1615 1615 1615 1616 1617 1618 1619 1620 1620 1620 1621 1621 1621 1621 1620 1620 1620 1619 1619 1619 1619 1618 1618 1618 1618 1617 1617 1617 1617 1617 1617 1616 1616 1616 1615 1615 1614 1614 1613 1612 1612 1611 1610 1609 1608 1606 1605 1604 1603 1601 1600 1598 1597 1595 1594 1592 1591 1589 1587 1586 1584 1582 1581 1579
1598 1599 1600 1601 1602 1603 1604 1605 1606 1607 1607 1608 1609 1610 1610 1611 1612 1612 1613 1613 1614 1614 1615 1615 1616 1617 1618 1619 1619 1620 1620 1621 1621 1621 1621 1620 1620 1620 1620 1619 1619 1619 1619 1618 1618 1618 1618 1618 1618 1617 1617 1617 1617 1616 1616 1615 1615 1614 1614 1613 1612 1611 1610 1609 1608 1607 1605 1604 1603 1601 1600 1598 1597 1595 1594 1592 1591 1589 1587 1585 1583 1582 1580 1578 1577
1597 1598 1599 1600 1601 1602 1604 1605 1606 1606 1607 1608 1609 1610 1610 1611 1611 1612 1612 1613 1614 1614 1615 1615 1616 1617 1618 1619 1619 1620 1620 1621 1621 1621 1621 1621 1620 1620 1620 1619 1619 1619 1619 1619 1619 1619 1618 1618 1618 1618 1618 1618 1617 1617 1616 1616 1615 1614 1613 1613 1612 1611 1609 1608 1607 1605 1604 1603 1601 1600 1598 1597 1595 1594 1592 1591 1589 1587 1585 1583 1581 1580 1578 1577 1575
1596 1597 1598 1600 1601 1602 1603 1604 1605 1606 1607 1608 1609 1610 1610 1611 1611 1612 1612 1613 1613 1614 1615 1615 1615 1616 1617 1618 1619 1620 1620 1620 1620 1620 1621 1621 1620 1620 1620 1619 1619 1619 1619 1619 1619 1619 1619 1619 1618 1618 1618 1618 1618 1617 1617 1616 1615 1614 1613 1612 1611 1610 1609 1607 1606 1604 1603 1601 1600 1599 1597 1596 1594 1592 1591 1589 1587 1585 1584 1582 1580 1579 1577 1575 1573
1595 1596 1598 1599 1600 1602 1603 1604 1605 1606 1607 1608 1609 1609 1610 1610 1611 1612 1612 1613 1613 1614 1614 1615 1615 1616 1617 1618 1618 1619 1620 1620 1620 1620 1620 1620 1620 1620 1620 1619 1619 1619 1619 1619 1619 1619 1619 1619 1619 1619 1619 1618 1618 1617 1617 1616 1615 1614 1613 1612 1611 1609 1607 1606 1605 1603 1602 1600 1599 1597 1596 1594 1593 1591 1590 1588 1586 1585 1583 1581 1579 1577 1575 1573 1571
1594 1596 1598 1599 1600 1601 1602 1604 1605 1606 1607 1607 1608 1609 1610 1610 1611 1611 1612 1612 1613 1613 1614 1614 1615 1615 1616 1617 1618 1618 1619 1619 1619 1620 1620 1620 1620 1620 1620 1619 1619 1619 1619 1619 1619 1619 1619 1619 1619 1619 1619 1618 1618 1618 1617 1616 1615 1614 1613 1611 1610 1608 1607 1605 1604 1602 1601 1599 1598 1596 1595 1593 1592 1591 1589 1587 1586 1584 1582 1580 1578 1576 1574 1572 1569
1594 1595 1597 1598 1599 1600 1601 1603 1604 1605 1606 1607 1608 1608 1609 1610 1610 1611 1612 1612 1612 1613 1614 1614 1614 1615 1615 1616 1617 1618 1618 1618 1619 1619 1620 1620 1620 1620 1620 1619 1619 1619 1618 1618 1618 1619 1619 1619 1619 1619 1618 1618 1618 1617 1617 1616 1615 1614 1612 1611 1609 1607 1606 1604 1603 1601 1600 1598 1597 1595 1594 1593 1592 1590 1588 1586 1584 1582 1580 1578 1576 1575 1573 1570 1568
1593 1594 1596 1597 1598 1599 1600 1602 1603 1604 1605 1606 1607 1607 1608 1609 1610 1610 1611 1612 1612 1613 1613 1614 1614 1615 1615 1616 1616 1617 1618 1618 1618 1619 1619 1620 1620 1620 1620 1620 1620 1619 1619 1618 1618 1618 1619 1619 1619 1618 1618 1618 1618 1617 1616 1615 1614 1613 1612 1610 1609 1607 1605 1604 1602 1601 1599 1597 1596 1595 1593 1592 1591 1589 1587 1585 1583 1581 1579 1577 1575 1574 1572 1569 1567
1591 1593 1594 1595 1597 1598 1599 1601 1602 1603 1604 1605 1606 1606 1607 1608 1609 1610 1610 1611 1611 1612 1613 1613 1614 1614 1615 1615 1616 1616 1617 1618 1618 1618 1619 1619 1620 1620 1620 1620 1620 1620 1620 1619 1618 1618 1618 1618 1618 1618 1618 1618 1617 1617 1616 1615 1614 1613 1611 1610 1608 1607 1605 1603 1602 1600 1599 1597 1595 1594 1592 1591 1589 1588 1586 1583 1581 1580 1578 1577 1575 1573 1571 1569 1567
1589 1591 1592 1594 1595 1597 1598 1599 1601 1602 1603 1604 1604 1605 1606 1607 1607 1608 1609 1610 1610 1611 1612 1613 1613 1614 1614 1615 1615 1616 1617 1617 1617 1618 1618 1619 1619 1619 1620 1620 1620 1620 1620 1619 1618 1618 1618 1618 1618 1618 1617 1617 1617 1617 1616 1615 1614 1612 1611 1609 1608 1606 1605 1603 1602 1600 1598 1596 1594 1593 1591 1590 1588 1586 1584 1582 1581 1579 1578 1576 1574 1572 1570 1568 1567
1587 1589 1591 1592 1594 1595 1597 1598 1599 1600 1601 1602 1603 1604 1605 1605 1606 1607 1608 1609 1609 1610 1611 1612 1612 1613 1613 1614 1615 1615 1616 1616 1617 1617 1618 1618 1618 1619 1619 1619 1619 1619 1619 1619 1618 1617 1617 1617 1617 1617 1617 1616 1616 1616 1615 1615 1613 1612 1610 1609 1608 1606 1604 1603 1601 1599 1597 1595 1593 1592 1590 1588 1587 1585 1583 1581 1580 1579 1577 1575 1574 1572 1570 1568 1566
1586 1587 1589 1590 1592 1594 1595 1597 1598 1599 1600 1601 1602 1603 1603 1604 1605 1605 1606 1607 1608 1609 1610 1611 1611 1612 1613 1613 1614 1614 1615 1615 1616 1616 1617 1617 1617 1618 1618 1618 1619 1619 1618 1618 1617 1616 1616 1617 1617 1617 1616 1616 1616 1615 1615 1614 1613 1611 1610 1608 1607 1605 1604 1602 1600 1598 1596 1594 1592 1591 1589 1587 1586 1584 1582 1580 1580 1578 1577 1575 1573 1571 1569 1567 1566
1584 1585 1587 1589 1591 1592 1593 1595 1596 1598 1599 1600 1601 1601 1602 1603 1603 1604 1605 1606 1607 1608 1608 1609 1610 1611 1612 1612 1613 1613 1614 1614 1615 1615 1616 1616 1616 1617 1617 1617 1617 1618 1617 1617 1617 1615 1615 1615 1615 1616 1615 1615 1615 1614 1613 1612 1611 1610 1609 1608 1606 1604 1603 1601 1599 1597 1595 1593 1592 1590 1587 1586 1585 1583 1581 1580 1579 1578 1577 1575 1573 1570 1569 1567 1566
1582 1583 1585 1587 1589 1590 1592 1593 1595 1596 1597 1598 1599 1600 1601 1601 1602 1603 1603 1604 1605 1606 1607 1608 1609 1610 1610 1611 1611 1612 1613 1613 1613 1614 1615 1615 1615 1615 1616 1616 1616 1616 1616 1616 1616 1615 1614 1613 1614 1614 1614 1614 1613 1613 1612 1611 1610 1609 1608 1606 1605 1603 1602 1600 1598 1597 1595 1593 1591 1589 1586 1585 1584 1582 1580 1580 1579 1578 1577 1575 1572 1570 1568 1567 1566
1579 1581 1583 1585 1587 1588 1590 1591 1593 1594 1595 1596 1597 1598 1599 1600 1601 1601 1602 1603 1603 1604 1605 1606 1607 1608 1609 1609 1610 1611 1611 1611 1612 1613 1613 1613 1614 1614 1614 1615 1615 1615 1615 1615 1614 1614 1613 1612 1612 1612 1612 1612 1612 1611 1610 1609 1609 1608 1607 1605 1604 1602 1601 1599 1597 1596 1594 1592 1591 1588 1586 1584 1583 1581 1580 1580 1579 1578 1576 1574 1572 1570 1568 1567 1565
1577 1579 1581 1582 1584 1586 1587 1589 1591 1592 1593 1595 1596 1597 1597 1598 1599 1600 1601 1601 1602 1603 1604 1605 1606 1607 1607 1608 1609 1609 1610 1610 1610 1611 1612 1612 1612 1612 1613 1613 1613 1613 1613 1613 1613 1612 1612 1611 1610 1611 1611 1611 1610 1610 1609 1608 1607 1607 1606 1605 1603 1602 1600 1598 1597 1595 1593 1592 1591 1588 1585 1584 1583 1581 1580 1580 1579 1577 1576 1574 1572 1569 1568 1567 1565
1574 1576 1577 1579 1581 1583 1585 1586 1588 1590 1591 1592 1594 1595 1596 1597 1597 1598 1599 1599 1600 1601 1602 1603 1604 1605 1606 1606 1607 1608 1608 1608 1609 1609 1610 1610 1610 1611 1611 1611 1611 1612 1611 1611 1611 1611 1610 1610 1609 1609 1609 1609 1608 1608 1607 1607 1606 1605 1605 1604 1602 1601 1599 1598 1596 1595 1593 1592 1591 1588 1585 1584 1583 1581 1580 1579 1578 1577 1575 1573 1571 1569 1567 1566 1565
1570 1572 1574 1576 1578 1579 1581 1583 1585 1587 1588 1590 1591 1592 1593 1594 1595 1596 1597 1598 1598 1599 1600 1601 1602 1603 1603 1604 1605 1606 1606 1606 1607 1607 1608 1608 1609 1609 1609 1609 1609 1609 1609 1609 1609 1609 1608 1608 1607 1607 1607 1607 1606 1606 1606 1605 1605 1604 1603 1602 1601 1600 1598 1597 1596 1594 1593 1592 1591 1588 1585 1583 1582 1581 1579 1579 1577 1576 1574 1572 1570 1568 1567 1566 1564
1566 1568 1570 1572 1574 1576 1578 1579 1581 1583 1584 1586 1588 1589 1591 1592 1593 1594 1595 1595 1596 1597 1598 1599 1599 1600 1601 1602 1603 1604 1604 1605 1605 1606 1606 1606 1606 1606 1607 1607 1607 1607 1607 1607 1607 1607 1606 1606 1605 1605 1605 1604 1604 1604 1604 1603 1603 1603 1602 1601 1600 1598 1597 1596 1595 1594 1593 1592 1590 1588 1585 1583 1582 1580 1579 1578 1577 1575 1573 1571 1570 1568 1566 1565 1564
1562 1564 1566 1568 1570 1572 1574 1575 1577 1579 1580 1582 1584 1586 1588 1589 1590 1591 1592 1593 1594 1594 1595 1596 1597 1598 1599 1600 1601 1601 1602 1603 1603 1603 1604 1604 1604 1604 1605 1605 1605 1604 1604 1604 1604 1604 1604 1603 1603 1603 1602 1601 1602 1602 1602 1601 1601 1601 1601 1600 1599 1597 1597 1596 1595 1594 1593 1591 1590 1588 1586 1584 1582 1581 1579 1578 1576 1574 1573 1571 1569 1567 1566 1565 1563
1558 1560 1562 1564 1565 1567 1569 1571 1573 1574 1576 1577 1579 1582 1584 1585 1587 1588 1589 1590 1591 1592 1592 1593 1594 1595 1596 1597 1598 1599 1599 1600 1600 1601 1601 1602 1602 1602 1602 1602 1602 1602 1602 1602 1602 1602 1601 1601 1600 1600 1599 1598 1599 1599 1599 1599 1600 1600 1599 1599 1598 1597 1595 1595 1594 1594 1593 1591 1590 1588 1586 1584 1583 1581 1579 1578 1576 1574 1572 1570 1568 1567 1565 1564 1563
1554 1556 1558 1559 1561 1563 1565 1566 1568 1569 1571 1573 1575 1578 1580 1582 1583 1585 1586 1587 1588 1588 1589 1590 1591 1592 1593 1594 1595 1595 1596 1597 1597 1598 1599 1599 1599 1599 1599 1600 1599 1599 1599 1599 1599 1599 1599 1598 1598 1597 1596 1595 1596 1597 1597 1597 1598 1598 1598 1597 1596 1595 1594 1593 1592 1592 1592 1591 1590 1588 1586 1584 1583 1581 1579 1578 1576 1574 1572 1570 1568 1566 1565 1563 1562
1550 1552 1554 1555 1557 1559 1560 1562 1563 1564 1566 1569 1571 1573 1575 1577 1579 1581 1582 1583 1584 1585 1586 1586 1587 1589 1590 1590 1591 1592 1593 1594 1594 1595 1596 1596 1596 1597 1597 1597 1597 1597 1597 1597 1597 1597 1596 1596 1595 1594 1594 1593 1593 1595 1596 1596 1596 1596 1595 1595 1594 1594 1593 1592 1591 1590 1590 1590 1589 1587 1585 1583 1582 1580 1579 1577 1576 1574 1572 1570 1568 1566 1564 1563 1562
1547 1548 1550 1551 1553 1554 1556 1557 1558 1560 1562 1564 1566 1568 1570 1573 1575 1576 1578 1579 1580 1581 1582 1583 1584 1585 1586 1587 1587 1588 1590 1590 1591 1592 1592 1593 1593 1593 1594 1594 1594 1594 1594 1594 1594 1594 1593 1593 1592 1591 1592 1592 1591 1592 1594 1594 1593 1593 1592 1592 1591 1591 1590 1589 1588 1588 1588 1588 1587 1586 1584 1582 1581 1580 1578 1577 1576 1573 1571 1569 1568 1566 1564 1563 1561
1543 1544 1545 1547 1548 1550 1551 1552 1553 1555 1557 1559 1561 1563 1565 1568 1570 1572 1574 1575 1576 1577 1578 1579 1580 1581 1582 1583 1583 1584 1586 1587 1587 1588 1588 1589 1589 1590 1590 1590 1590 1591 1591 1591 1591 1591 1590 1590 1589 1589 1590 1590 1589 1590 1591 1591 1590 1589 1589 1588 1587 1587 1586 1586 1586 1585 1585 1585 1585 1583 1582 1581 1580 1578 1577 1576 1575 1573 1571 1569 1568 1566 1564 1563 1561
1538 1540 1541 1543 1544 1545 1546 1548 1549 1550 1551 1553 1556 1558 1560 1563 1565 1567 1569 1571 1572 1573 1574 1575 1576 1577 1578 1579 1579 1580 1581 1582 1583 1584 1585 1585 1585 1585 1585 1586 1586 1587 1587 1587 1588 1588 1587 1587 1586 1586 1586 1587 1587 1587 1587 1587 1586 1586 1585 1584 1584 1584 1583 1583 1583 1583 1583 1582 1582 1581 1580 1579 1578 1577 1575 1574 1574 1572 1570 1568 1567 1566 1564 1563 1561
1534 1536 1537 1538 1539 1541 1542 1543 1544 1545 1546 1548 1551 1553 1555 1558 1560 1562 1564 1566 1567 1569 1570 1571 1572 1573 1574 1575 1575 1576 1577 1578 1579 1580 1581 1581 1581 1581 1581 1581 1582 1583 1583 1584 1584 1584 1584 1584 1583 1583 1583 1583 1584 1583 1583 1583 1583 1583 1582 1581 1581 1581 1581 1580 1579 1580 1580 1580 1579 1578 1577 1577 1576 1574 1573 1572 1571 1570 1568 1567 1566 1565 1564 1562 1561
1530 1531 1532 1534 1535 1536 1538 1539 1540 1540 1541 1543 1546 1548 1550 1553 1555 1557 1559 1561 1563 1564 1565 1567 1568 1569 1570 1571 1571 1572 1573 1573 1575 1576 1577 1577 1576 1576 1576 1577 1578 1579 1579 1580 1581 1581 1581 1580 1580 1579 1579 1579 1580 1580 1580 1580 1580 1579 1579 1578 1578 1579 1578 1577 1576 1577 1577 1576 1576 1576 1575 1574 1573 1572 1571 1570 1569 1568 1567 1566 1565 1564 1563 1562 1560
1525 1526 1528 1529 1531 1532 1533 1534 1536 1536 1537 1539 1541 1543 1545 1548 1550 1552 1554 1556 1558 1559 1560 1562 1563 1564 1565 1566 1567 1568 1568 1569 1571 1572 1573 1573 1572 1572 1572 1573 1574 1574 1575 1576 1577 1577 1577 1577 1576 1575 1575 1576 1576 1576 1576 1576 1576 1576 1576 1575 1576 1576 1575 1574 1573 1573 1572 1572 1572 1572 1572 1571 1571 1570 1569 1567 1566 1566 1565 1564 1564 1563 1562 1561 1560
1521 1522 1524 1525 1526 1527 1528 1530 1531 1532 1533 1534 1536 1538 1540 1543 1545 1548 1550 1551 1553 1554 1556 1557 1558 1559 1560 1562 1563 1563 1564 1565 1566 1567 1568 1568 1568 1568 1569 1569 1569 1570 1571 1573 1573 1573 1573 1572 1572 1572 1572 1572 1573 1573 1573 1573 1573 1573 1572 1572 1572 1572 1571 1570 1570 1569 1568 1567 1568 1569 1568 1568 1568 1568 1567 1565 1564 1564 1564 1563 1562 1562 1561 1560 1559